Overview Statistics Trail Chart Weather Telemetry Raw packets
 

This is the latest recevied weather packets stored in our database for station/object W7BTL. If no packets are shown the sender has not sent any weather packets the latest 10 day(s).

<< 14 15 16 17 18 19 20 >>
Time Temp. Humidity Pressure Rain* Wind** Luminosity Snow
1788559921 30.56° C 39% 1012 hPa 0 mm - 729 W/m² -
1788559615 30° C 41% 1012.1 hPa 0 mm - 747 W/m² -
1788559311 30.56° C 40% 1012.1 hPa 0 mm - 761 W/m² -
1788559010 31.11° C 37% 1012.1 hPa 0 mm - 781 W/m² -
1788558706 30.56° C 41% 1011.9 hPa 0 mm - 797 W/m² -
1788558401 31.11° C 38% 1012.1 hPa 0 mm - 809 W/m² -
1788558097 31.11° C 38% 1012.1 hPa 0 mm - 824 W/m² -
1788557795 31.11° C 39% 1012.1 hPa 0 mm - 840 W/m² -
1788557492 31.11° C 39% 1012.2 hPa 0 mm - 851 W/m² -
1788557192 30.56° C 41% 1012.1 hPa 0 mm - 864 W/m² -
1788556887 30.56° C 42% 1012.1 hPa 0 mm - 875 W/m² -
1788556586 30° C 42% 1012.3 hPa 0 mm - 887 W/m² -
1788556282 30° C 39% 1012.2 hPa 0 mm - 896 W/m² -
1788555981 30° C 42% 1012.2 hPa 0 mm - 908 W/m² -
1788555677 30° C 41% 1012.3 hPa 0 mm - 917 W/m² -
1788555373 30° C 43% 1012 hPa 0 mm - 926 W/m² -
1788555069 30° C 45% 1012.3 hPa 0 mm - 937 W/m² -
1788554764 29.44° C 45% 1012.4 hPa 0 mm - 943 W/m² -
1788554461 29.44° C 44% 1012.3 hPa 0 mm - 953 W/m² -
1788554156 30° C 45% 1012.5 hPa 0 mm - 907 W/m² -
1788553853 30° C 43% 1012.2 hPa 0 mm - 965 W/m² -
1788553548 30° C 45% 1012.4 hPa 0 mm - 971 W/m² -
1788553244 29.44° C 47% 1012.4 hPa 0 mm - 976 W/m² -
1788552939 28.89° C 44% 1012.5 hPa 0 mm - 974 W/m² -
1788552634 30° C 45% 1012.6 hPa 0 mm - 979 W/m² -

* Rain latest hour (hover to see other rain measurements)
** Current wind speed in m/s (hover to see current wind gust speed)